Flag for Greece Weather past 2 weeks in Volos, Greece

Now
61 °F

Mostly cloudy.


Feels Like: 61 °F
Forecast: 55 / 74 °F
Wind: 6 mph from North

Location: Thessaloniki Airport

Current Time: May 29, 2015 at 4:08:10 AM

Latest Report: May 29, 2015 at 3:20 AM


Visibility: N/A

Pressure: 29.89 "Hg

Humidity: 55%

Dew point: 45 °F

Location of VolosLocation

Historic Weather in Volos — Graph

°F

Volos temperature yesterday

Maximum temperature yesterday: 66 °F (at 5:20 PM)
Minimum temperature yesterday: 59 °F (at 6:20 AM)
Average temperature yesterday: 63 °F

Past Weeks' High & Low Weather Summary

 TemperatureHumidityPressure
High84 °F (May 20, 5:50 PM)94% (May 17, 3:20 AM)30.09 "Hg (May 17, 3:20 AM)
Low54 °F (May 14, 3:50 AM)23% (May 26, 3:50 PM)29.68 "Hg (May 27, 1:50 AM)
Average70 °F61%29.86 "Hg
* Reported May 14 2:20 AM — May 29 2:50 AM, Volos, Weather by CustomWeather, © 2015

Note: Actual official high and low records may vary slightly from our data, if they occured in-between our weather recording intervals... More about our weather records

Advertising

Volos weather history for previous 24 hours

 ConditionsComfort  
Time TempWeatherWind HumidityBarometerVisibility
2:50 AM
Fri, May 29
59 °FDrizzle. Mostly cloudy.7 mph59%29.89 "HgN/A
2:20 AM61 °FDrizzle. Mostly cloudy.14 mph55%29.89 "HgN/A
12:50 AM59 °FPassing clouds.7 mph63%29.89 "HgN/A
12:20 AM59 °FPassing clouds.9 mph63%29.89 "HgN/A
11:50 PM
Thu, May 28
61 °FPassing clouds.8 mph59%29.89 "HgN/A
11:20 PM61 °FPassing clouds.12 mph55%29.89 "HgN/A
10:50 PM63 °FPassing clouds.12 mph52%29.89 "HgN/A
10:20 PM63 °FPassing clouds.12 mph52%29.89 "HgN/A
9:50 PM63 °FPassing clouds.10 mph56%29.86 "HgN/A
9:20 PM64 °FPartly sunny.15 mph52%29.86 "HgN/A
8:50 PM64 °FPartly sunny.8 mph49%29.86 "HgN/A
8:20 PM64 °FPartly sunny.7 mph49%29.86 "HgN/A
7:50 PM64 °FPartly sunny.9 mph49%29.86 "HgN/A
7:20 PM64 °FPartly sunny.8 mph46%29.86 "HgN/A
6:50 PM66 °FBroken clouds.7 mph46%29.86 "HgN/A
6:20 PM66 °FBroken clouds.7 mph46%29.86 "HgN/A
5:50 PM66 °FBroken clouds.13 mph46%29.86 "HgN/A
5:20 PM66 °FBroken clouds.9 mph46%29.86 "HgN/A
4:50 PM64 °FBroken clouds.9 mph52%29.86 "HgN/A
4:20 PM64 °FBroken clouds.6 mph52%29.86 "HgN/A
3:50 PM63 °FMore clouds than sun.7 mph59%29.86 "HgN/A
3:20 PM63 °FMore clouds than sun.10 mph59%29.86 "HgN/A
2:50 PM61 °FLight rain. More clouds than sun.9 mph68%29.86 "HgN/A
2:20 PM61 °FLight rain. More clouds than sun.10 mph68%29.89 "Hg6 mi
1:50 PM61 °FRain. More clouds than sun.12 mph68%29.89 "Hg6 mi
1:20 PM61 °FRain. More clouds than sun.21 mph68%29.89 "Hg6 mi
12:50 PM63 °FRain. More clouds than sun.18 mph64%29.89 "HgN/A
11:50 AM63 °FDrizzle. More clouds than sun.14 mph56%29.89 "HgN/A
11:20 AM63 °FLight rain. More clouds than sun.6 mph59%29.89 "HgN/A
10:50 AM61 °FLight rain. More clouds than sun.9 mph59%29.89 "HgN/A
10:20 AM61 °FLight rain. More clouds than sun.8 mph63%29.86 "HgN/A
9:50 AM61 °FLight rain. More clouds than sun.14 mph59%29.86 "HgN/A
9:20 AM61 °FDrizzle. More clouds than sun.7 mph63%29.86 "HgN/A
8:50 AM61 °FDrizzle. More clouds than sun.6 mph63%29.86 "HgN/A
8:20 AM61 °FDrizzle. Partly sunny.17 mph63%29.83 "HgN/A
7:50 AM61 °FDrizzle. Partly sunny.17 mph63%29.83 "HgN/A
7:20 AM59 °FLight rain. Partly sunny.14 mph68%29.83 "HgN/A
6:50 AM59 °FRain. Passing clouds.8 mph72%29.83 "HgN/A
6:20 AM59 °FRain. Passing clouds.8 mph68%29.83 "HgN/A
5:50 AM61 °FLight rain. Partly cloudy.8 mph63%29.80 "HgN/A
5:20 AM61 °FLight rain. Partly cloudy.8 mph59%29.80 "HgN/A
4:50 AM63 °FLight rain. Passing clouds.9 mph56%29.80 "HgN/A
4:20 AM63 °FLight rain. Passing clouds.8 mph56%29.80 "HgN/A
Weather by CustomWeather, © 2015

See weather overviewHow to use our weather pages